Location: Casa Rossa
(45.2389°N, 12.2056°E)
Time: 04:13:37
(UTC+00:00)

Cosmos 407 Rocket - Pass Details

Date: 14 July 2020
Orbit: 744 x 786 km, 74.0° (Epoch: 11 August)

Event Time Altitude Azimuth Distance (km) Brightness Sun altitude
Exits shadow 00:55:12 38° 196° (SSW) 1,182 3.9 -19.5°
Maximum altitude 00:57:19 86° 110° (ESE) 794 3.5 -19.3°
Drops below altitude 10° 01:02:42 10° 22° (NNE) 2,355 7.3 -18.9°
Sets 01:05:06 0° 22° (NNE) 3,287 8.5 -18.8°
